Regional Weather Roundup
Issued by NWS State College, PA

Home | Current Version | Previous Version | Text Only | Print | Product List | Glossary On
Versions: 1 2 3 4 5 6 7 8 9 10 11 12 13 14 15 16 17 18 19 20 21 22 23 24 25 26 27 28 29 30 31 32 33 34 35 36 37 38 39 40 41 42 43 44 45 46 47 48 49 50
000
ASUS41 KCTP 280610
RWRCTP

REGIONAL WEATHER ROUNDUP
NATIONAL WEATHER SERVICE STATE COLLEGE PA
200 AM EDT THU MAY 28 2015

Note: "fair" indicates few or no clouds below 12,000 feet with no
significant weather and/or obstructions to visibility.

* = STATION THAT DOES NOT REPORT PRECIPITATION /E.G. RAIN...SNOW...ETC/
    THUNDER OR FOG.

PAZ002>004-007>009-013>016-020>023-029>032-280700-
WESTERN PENNSYLVANIA

CITY           SKY/WX    TMP DP  RH WIND       PRES   REMARKS
ERIE           CLOUDY    64  60  87 S10       30.09R
MEADVILLE      CLOUDY    61  59  93 SW5       30.13S FOG
FRANKLIN*      CLOUDY    61  55  82 S5        30.16F
NEW CASTLE     MOCLDY    63  63 100 CALM      30.16R
BEAVER COUNTY  NOT AVBL
BUTLER*        MOCLDY    61  59  94 NE3       30.18R
PITTSBURGH INT PTCLDY    68  60  75 S3        30.14R
PITTSBURGH     CLEAR     67  59  75 S6        30.14R
INDIANA*       MOCLDY    66  61  82 CALM      30.19S
LATROBE        CLEAR     64  63  94 SW6       30.16S
WASHINGTON CO* CLEAR     64  61  88 CALM      30.17R
$$

PAZ004>006-010>012-017>019-024>028-033>037-041-042-045-046-049>053-280700-
CENTRAL PENNSYLVANIA

CITY           SKY/WX    TMP DP  RH WIND       PRES   REMARKS
BRADFORD       LGT RAIN  59  58  96 CALM      30.15F
DUBOIS         MOCLDY    62  59  90 CALM      30.16S
CLEARFIELD     MOCLDY    65  59  81 SW3       30.16R
JOHNSTOWN      PTCLDY    65  59  81 S8        30.19S
ALTOONA        PTCLDY    64  59  83 W6        30.16F
STATE COLLEGE  PTCLDY    65  60  82 W7        30.13S
WILLIAMSPORT   CLEAR     66  63  90 NE3       30.09S
SELINSGROVE    CLEAR     67  65  93 CALM      30.12S
FT INDIANTOWN  FOG       63  63 100 CALM      30.13S VSB 1/2
CAPITAL CITY   CLEAR     66  64  93 CALM      30.12F
HARRISBURG     PTCLDY    68  65  90 CALM      30.11F
YORK           PTCLDY    65  64  97 CALM      30.13F
$$

PAZ038>040-043-044-047-048-054-055-060>062-067>071-280700-
EASTERN PENNSYLVANIA

CITY           SKY/WX    TMP DP  RH WIND       PRES   REMARKS
SCRANTON       CLEAR     65  62  90 SE3       30.12F FOG
MOUNT POCONO   CLEAR     64  61  90 W6        30.17S
ALLENTOWN      FOG       64  63  94 CALM      30.14S VSB 1/4
QUAKERTOWN*    NOT AVBL
READING        PTCLDY    65  64  97 CALM      30.12S FOG
LANCASTER      CLEAR     66  65  96 NW3       30.13S
COATESVILLE    CLEAR     68  68 100 CALM      30.15F
POTTSTOWN      CLEAR     65  65 100 CALM      30.15S FOG
BLUE BELL      PTCLDY    72  70  94 S3        30.13S
DOYLESTOWN     PTCLDY    67  67 100 S5        30.13S
WILLOW GROVE   NOT AVBL
NORTH PHILA    PTCLDY    72  65  78 S6        30.15S
PHILADELPHIA   PTCLDY    72  68  87 S7        30.14F
$$


USA.gov is the U.S. government's official web portal to all federal, state and local government web resources and services.